Regional Weather Roundup
Issued by NWS Sterling, VA

Home | Current Version | Previous Version | Text Only | Print | Product List | Glossary Off
Versions: 1 2 3 4 5 6 7 8 9 10 11 12 13 14 15 16 17 18 19 20 21 22 23 24 25 26 27 28 29 30 31 32 33 34 35 36 37 38 39 40 41 42 43 44 45 46 47 48 49 50

000
ASUS41 KLWX 271610
RWRLWX

REGIONAL WEATHER ROUNDUP
NATIONAL WEATHER SERVICE BALTIMORE MD/WASHINGTON DC
1200 PM EDT WED MAY 27 2015

Note: "FAIR" indicates few or no clouds below 12,000 feet
with no significant weather and/or obstructions to visibility.
 TC=TEMPERATURE CELSIUS

 * =Non NWS site. Station does not report precipitation (e.g. rain,
    snow, etc.), thunder, or fog.

DCZ001-MDZ009-015-VAZ040>042-051-053>054-271700-
WASHINGTON METRO

CITY           SKY/WX    TMP DP  RH WIND       PRES   REMARKS
WASHINGTON NAT MOSUNNY   83  71  67 S10       30.16S
DULLES         PTSUNNY   83  68  60 S10       30.16S
ANDREWS AFB    SUNNY     83  69  62 S14       30.16S
FT BELVOIR     SUNNY     84  68  58 S8        30.15F
QUANTICO       MOSUNNY   83  68  60 SW15      30.17S
LEESBURG*      PTSUNNY   86  72  62 SW8G16    30.17S HX  92
MANASSAS*      PTSUNNY   84  70  61 S12       30.15F
GAITHERSBURG*  PTSUNNY   82  70  65 S6        30.20F

$$

MDZ006>007-011-014-271700-
BALTIMORE METRO

CITY           SKY/WX    TMP DP  RH WIND       PRES   REMARKS
BWI AIRPORT    PTSUNNY   81  68  64 VRB7      30.16S
MD SCIENCE CTR   N/A     81  68  64 MISG      30.16S
MARTIN STATE   MOSUNNY   81  73  78 SE15      30.18
ANNAPOLIS      MOSUNNY   78  69  73 S13       30.17S

$$

MDZ012-015-019>023-271700-
MARYLAND EASTERN SHORE

CITY           SKY/WX    TMP DP  RH WIND       PRES   REMARKS
OCEAN CITY     PTSUNNY   72  64  76 S9        30.24R
SALISBURY      PTSUNNY   80  69  69 S15       30.21S

$$

MDZ017>025-271700-
SOUTHERN MARYLAND

CITY           SKY/WX    TMP DP  RH WIND       PRES   REMARKS
PATUXENT RIVER MOSUNNY   80  69  69 SE10      30.18F
ST INIGOES     SUNNY     83  69  62 S8        30.18F
LEONARDTOWN*   NOT AVBL

$$

MDZ003>005-271700-
NORTH CENTRAL MARYLAND

CITY           SKY/WX    TMP DP  RH WIND       PRES   REMARKS
FREDERICK*     CLOUDY    82  72  69 S8        30.18S
HAGERSTOWN APT LGT RAIN  74  68  81 CALM      30.15S
WESTMINSTER*   NOT AVBL

$$

MDZ501>502-271700-
WESTERN MARYLAND

CITY           SKY/WX    TMP DP  RH WIND       PRES   REMARKS
OAKLAND*       NOT AVBL
CUMBERLAND*    NOT AVBL

$$

VAZ025>031-271700-
SHENANDOAH VALLEY

CITY           SKY/WX    TMP DP  RH WIND       PRES   REMARKS
WINCHESTER*    PTSUNNY   82  63  51 SW8       30.16S
FRONT ROYAL*   FAIR      79  68  69 SW6       30.16S
LURAY*         FAIR      81  70  69 S6        30.18S
NEW MARKET*      N/A    N/A N/A N/A MISG        N/A
STAUNTON*      CLOUDY    77  65  66 SW8       30.23R
WAYNESBORO*    FAIR      75  65  70 SW6       30.22S

$$

WVZ021-048>050-054>055-271700-
EASTERN WEST VIRGINIA PANHANDLE

CITY           SKY/WX    TMP DP  RH WIND       PRES   REMARKS
MARTINSBURG    PTSUNNY   80  69  69 SW6       30.15S
PETERSBURG*    LGT RAIN  73  65  77 SE3       30.22R

$$

VAZ036>039-050-271700-
CENTRAL FOOTHILLS

CITY           SKY/WX    TMP DP  RH WIND       PRES   REMARKS
CHARLOTTESVILL PTSUNNY   82  67  60 SW6       30.18S
CULPEPER*      MOSUNNY   82  68  63 SW9       30.17S
ORANGE*        MOSUNNY   84  68  58 S9        30.19S
GORDONSVILLE*  FAIR      82  67  60 SW7       30.17S
WARRENTON*     FAIR      86  71  60 S8        30.16S HX  92

$$

VAZ055>057-271700-
NORTH AND CENTRAL PIEDMONT

CITY           SKY/WX    TMP DP  RH WIND       PRES   REMARKS
FREDERICKSBRG* SUNNY     87  66  48 SW15      30.16S
STAFFORD*      SUNNY     85  63  47 SW10      30.20S

$$

NCZ024-NYZ072-PAZ021-071-VAZ022-071-271700-
OTHER REGIONAL OBSERVATIONS

CITY           SKY/WX    TMP DP  RH WIND       PRES   REMARKS
NEW YORK CITY  CLOUDY    77  67  71 MISG      30.20S
PHILADELPHIA   MOSUNNY   83  69  62 SW9       30.16F
PITTSBURGH     PTSUNNY   73  63  70 SW10      30.15S
ROANOKE        PTSUNNY   81  61  50 W10       30.24S
RICHMOND       PTSUNNY   85  67  54 S16G22    30.20F
RALEIGH        PTSUNNY   82  68  62 SW13      30.25F

$$

ANZ530>537-271700-
MARINE OBSERVATIONS

STATION/POSITION TIME  TEMP    WIND        PRES
                       AIR SEA DIR/SP/G
                 (UTC) (F)     (DEG/KT/KT) (MB)
THOMAS PT LIGHT  1600   72 68  170/ 17/ 18 1022.0F
BALT KEY BRIDGE  1500   76     170/  7/  8 1021.1S
COVE POINT       1500   70     170/ 16/ 17 1022.9F
LEWISETTA        1500   79 72              1022.1S
SOLOMONS ISLAND  1500      71                N/A
PINEY POINT      1500          180/  6/  7   N/A

$$



USA.gov is the U.S. government's official web portal to all federal, state and local government web resources and services.